Left ArrowRight Arrow

Hourly Observations for June 16, 2024

Temp ( °F °C ) Dew Point ( °F °C ) Humidity (%) Winds ( mph kmh ) Pressure ( in mb ) Visibility ( mi km ) Precip ( " mm )
12:53 am 00:53 Clear 72 22.2 65 18.3 79 79 SSE 14 22 29.68 1005 10 16 0.00 0.00
1:53 am 01:53 Clear 70 21.1 66 18.9 87 87 SSE 13 20 29.67 1005 10 16 0.00 0.00
2:53 am 02:53 Clear 70 21.1 66 18.9 87 87 S 10 17 29.66 1004 10 16 0.00 0.00
3:53 am 03:53 Clear 69 20.6 66 18.9 90 90 S 9 15 29.64 1004 10 16 0.00 0.00
4:53 am 04:53 Clear 70 21.1 66 18.9 87 87 SSE 13 20 29.62 1003 10 16 0.00 0.00
5:53 am 05:53 Clear 70 21.1 66 18.9 87 87 S 13 20 29.62 1003 10 16 0.00 0.00
6:53 am 06:53 Sunny 70 21.1 66 18.9 87 87 S 13 20 29.63 1004 10 16 0.00 0.00
7:53 am 07:53 Sunny 73 22.8 66 18.9 79 79 S 14 22 29.65 1004 10 16 0.00 0.00
8:53 am 08:53 Sunny 77 25 67 19.4 71 71 S 13 20 29.66 1004 10 16 0.00 0.00
9:53 am 09:53 Sunny 79 26.1 68 20 69 69 S 16 26 29.68 1005 10 16 0.00 0.00
10:53 am 10:53 Sunny 81 27.2 68 20 65 65 SSW 14 22 29.69 1005 10 16 0.00 0.00
11:53 am 11:53 Sunny 84 28.9 69 20.6 61 61 SSW 14 22 29.69 1005 10 16 0.00 0.00
12:53 pm 12:53 Mostly Sunny 86 30 70 21.1 59 59 VRB 6 9 29.69 1006 10 16 0.00 0.00
1:53 pm 13:53 Sunny 88 31.1 70 21.1 55 55 SW 8 13 29.67 1005 10 16 0.00 0.00
2:53 pm 14:53 Sunny 90 32.2 71 21.7 54 54 S 8 13 29.66 1004 10 16 0.00 0.00
3:53 pm 15:53 Sunny 91 32.8 70 21.1 50 50 S 13 20 29.64 1004 10 16 0.00 0.00
4:53 pm 16:53 Sunny 92 33.3 70 21.1 49 49 S 12 19 29.63 1003 10 16 0.00 0.00
5:53 pm 17:53 Sunny 91 32.8 70 21.1 50 50 SSE 14 22 29.62 1003 10 16 0.00 0.00
6:53 pm 18:53 Sunny 91 32.8 70 21.1 50 50 SSE 14 22 29.62 1003 10 16 0.00 0.00
7:53 pm 19:53 Sunny 89 31.7 72 22.2 57 57 SE 9 15 29.62 1003 10 16 0.00 0.00
8:53 pm 20:53 Sunny 87 30.6 68 20 53 53 SSE 13 20 29.63 1003 10 16 0.00 0.00
9:53 pm 21:53 Clear 84 28.9 68 20 59 59 SSE 10 17 29.65 1004 10 16 0.00 0.00
10:53 pm 22:53 Clear 83 28.3 67 19.4 59 59 SSE 14 22 29.66 1004 10 16 0.00 0.00
11:53 pm 23:53 Clear 82 27.8 67 19.4 60 60 SSE 17 28 29.62 1003 10 16 0.00 0.00

Powered by Vaisala Xweather